Location: Lombard
(41.8800°N, 88.0080°W)
Time: 05:07:17
(UTC-05:00)

Vanguard 2 Rocket - Pass Details

Date: 28 February 2024
Orbit: 555 x 3307 km, 32.9° (Epoch: 12 April)

Event Time Altitude Azimuth Distance (km) Brightness Sun altitude
Rises 10:56:35 0° 184° (S) 3,291 10.6 37.8°
Reaches altitude 10° 11:01:17 10° 146° (SE) 2,855 10.6 38.1°
Maximum altitude 11:02:50 11° 133° (SE) 2,970 10.5 38.2°
Drops below altitude 10° 11:04:31 10° 120° (ESE) 3,224 10.5 38.3°
Sets 11:11:38 0° 89° (E) 5,027 10.9 38.7°
